Waarnemingen

Advertentie
Mijn weer
Malaga/Aeropuerto, Spanje (8482): temperatuur & dauwpunt: 21.05.2020 11:00:00 - 27.05.2020 11:00:00 (CEST)Malaga/Aeropuerto, Spanje (8482): windsnelheid: 21.05.2020 11:00:00 - 27.05.2020 11:00:00 (CEST)Malaga/Aeropuerto, Spanje (8482): windrichting: 21.05.2020 11:00:00 - 27.05.2020 11:00:00 (CEST)Malaga/Aeropuerto, Spanje (8482): luchtdruk: 21.05.2020 11:00:00 - 27.05.2020 11:00:00 (CEST)Malaga/Aeropuerto, Spanje (8482): zicht: 21.05.2020 11:00:00 - 27.05.2020 11:00:00 (CEST)
Datum & Tijd tt [°C] td [°C] ff [km/u] ff [kn] dd ppp [hPa] vv [km]
27.05.2020 11:00:00 24,3 15,0 5 3 O 1021,5 25
27.05.2020 10:00:00 22,7 16,3 4 2 WNW 1021,7 -
27.05.2020 09:00:00 20,8 15,7 8 4 W 1021,6 20
27.05.2020 08:00:00 19,2 15,4 8 4 W 1021,4 20
27.05.2020 07:00:00 18,6 15,2 5 3 W 1021,1 -
27.05.2020 06:00:00 18,6 15,6 4 2 ZZW 1021,0 -
27.05.2020 05:00:00 19,6 15,9 5 3 Z 1021,5 15
27.05.2020 04:00:00 20,4 16,1 5 3 ZZO 1021,9 -
27.05.2020 03:00:00 20,8 16,7 8 4 ZZO 1022,1 -
27.05.2020 02:00:00 20,9 16,9 5 3 ZZO 1022,3 15
27.05.2020 01:00:00 20,9 16,8 8 4 OZO 1022,8 -
27.05.2020 00:00:00 21,0 16,4 8 4 OZO 1023,2 -
26.05.2020 23:00:00 20,6 15,9 8 4 OZO 1023,0 20
26.05.2020 22:00:00 20,9 15,8 8 4 O 1022,3 -
26.05.2020 21:00:00 22,1 15,3 8 4 OZO 1021,9 -
26.05.2020 20:00:00 23,3 15,4 9 5 OZO 1021,6 30
26.05.2020 19:00:00 23,8 15,0 11 6 ZO 1021,8 -
26.05.2020 18:00:00 24,4 15,7 11 6 ZO 1021,9 -
26.05.2020 17:00:00 24,6 14,9 15 8 ZO 1022,3 30
26.05.2020 16:00:00 25,1 15,0 18 10 ZO 1022,7 -
26.05.2020 15:00:00 25,1 13,0 15 8 ZZO 1023,1 30
26.05.2020 14:00:00 25,0 13,1 13 7 ZZO 1023,5 30
26.05.2020 13:00:00 24,7 12,7 13 7 ZO 1023,7 -
26.05.2020 12:00:00 24,8 12,3 16 9 ZO 1023,5 -
26.05.2020 11:00:00 24,5 11,5 5 3 O 1023,3 30
26.05.2020 10:00:00 21,6 12,0 9 5 WNW 1023,6 -
26.05.2020 09:00:00 18,9 11,6 15 8 W 1023,7 30
26.05.2020 08:00:00 16,7 11,9 16 9 W 1023,8 30
26.05.2020 07:00:00 16,1 12,0 16 9 W 1023,3 -
26.05.2020 06:00:00 16,7 12,1 15 8 WNW 1023,1 -
26.05.2020 05:00:00 17,2 12,6 15 8 WNW 1022,9 15
26.05.2020 04:00:00 18,5 13,1 15 8 WNW 1022,9 -
26.05.2020 03:00:00 18,2 13,4 11 6 W 1023,4 -
26.05.2020 02:00:00 19,6 14,0 9 5 WNW 1023,9 15
26.05.2020 01:00:00 19,6 14,9 8 4 W 1024,5 -
26.05.2020 00:00:00 19,2 15,0 4 2 Z 1024,7 -
25.05.2020 23:00:00 19,8 15,2 4 2 ZZO 1024,6 15
25.05.2020 22:00:00 20,5 14,9 5 3 ZO 1024,0 -
25.05.2020 21:00:00 21,4 14,9 11 6 O 1023,7 -
25.05.2020 20:00:00 22,9 16,1 13 7 OZO 1023,2 25
25.05.2020 19:00:00 23,3 16,8 15 8 ZZO 1023,2 -
25.05.2020 18:00:00 23,5 16,6 15 8 ZO 1023,3 -
25.05.2020 17:00:00 23,3 16,4 16 9 Z 1023,6 25
25.05.2020 16:00:00 23,8 17,2 22 12 ZZO 1023,7 -
25.05.2020 15:00:00 24,6 17,4 22 12 ZZO 1023,6 25
25.05.2020 14:00:00 23,8 16,9 22 12 ZZO 1024,1 25
25.05.2020 13:00:00 23,5 16,6 21 11 ZO 1024,6 -
25.05.2020 12:00:00 23,3 16,3 18 10 ZZO 1024,7 -
25.05.2020 11:00:00 23,3 15,9 13 7 ZZO 1024,9 20
25.05.2020 10:00:00 21,0 15,7 8 4 WNW 1024,8 -
25.05.2020 09:00:00 19,3 14,1 13 7 W 1024,8 20
25.05.2020 08:00:00 17,3 13,4 11 6 WNW 1025,2 20
25.05.2020 07:00:00 16,8 12,9 11 6 WNW 1025,0 -
25.05.2020 06:00:00 17,5 13,2 5 3 WNW 1024,8 -
25.05.2020 05:00:00 19,0 15,0 8 4 W 1024,7 20
25.05.2020 04:00:00 19,9 17,2 2 1 ZO 1024,8 -
25.05.2020 03:00:00 19,8 17,4 5 3 ZZO 1025,2 -
25.05.2020 02:00:00 19,7 17,7 11 6 OZO 1025,5 20
25.05.2020 01:00:00 19,9 16,8 11 6 OZO 1025,8 -
25.05.2020 00:00:00 19,9 15,9 8 4 O 1025,9 -
24.05.2020 23:00:00 20,3 13,9 5 3 ZO 1025,7 30
24.05.2020 22:00:00 21,2 13,9 5 3 ZO 1024,9 -
24.05.2020 21:00:00 22,2 14,0 8 4 O 1024,4 -
24.05.2020 20:00:00 23,8 14,4 9 5 O 1024,5 40
24.05.2020 19:00:00 23,7 14,3 15 8 O 1024,8 -
24.05.2020 18:00:00 25,2 13,8 15 8 OZO 1024,6 -
24.05.2020 17:00:00 25,1 14,0 16 9 ZZO 1024,6 40
24.05.2020 16:00:00 25,5 14,9 16 9 ZO 1025,0 -
24.05.2020 15:00:00 25,0 15,7 15 8 ZO 1025,4 40
24.05.2020 14:00:00 25,2 16,3 15 8 ZZO 1025,8 40
24.05.2020 13:00:00 26,1 14,5 21 11 ZO 1025,9 -
24.05.2020 12:00:00 26,7 11,8 16 9 OZO 1025,6 -
24.05.2020 11:00:00 26,4 11,4 11 6 ZZO 1024,8 40
24.05.2020 10:00:00 23,8 12,2 9 5 WNW 1024,8 -
24.05.2020 09:00:00 21,0 11,6 15 8 WNW 1024,5 45
24.05.2020 08:00:00 18,1 11,9 15 8 W 1024,1 35
24.05.2020 07:00:00 17,9 11,8 15 8 W 1023,6 -
24.05.2020 06:00:00 18,7 11,6 13 7 WNW 1023,1 -
24.05.2020 05:00:00 18,9 12,3 13 7 W 1023,0 15
24.05.2020 04:00:00 19,1 12,3 13 7 WNW 1023,3 -
24.05.2020 03:00:00 20,9 11,8 11 6 WNW 1023,5 -
24.05.2020 02:00:00 21,9 11,8 9 5 WNW 1023,8 15
24.05.2020 01:00:00 21,4 12,7 5 3 WNW 1024,1 -
24.05.2020 00:00:00 21,7 13,2 2 1 Z 1024,0 -
23.05.2020 23:00:00 21,9 12,9 4 2 OZO 1023,5 15
23.05.2020 22:00:00 23,6 12,2 8 4 OZO 1022,9 -
23.05.2020 21:00:00 26,3 11,9 11 6 OZO 1022,4 -
23.05.2020 20:00:00 27,5 11,8 11 6 ZO 1022,2 30
23.05.2020 19:00:00 28,0 11,4 11 6 ZO 1022,3 -
23.05.2020 18:00:00 28,9 10,6 9 5 OZO 1022,8 -
23.05.2020 17:00:00 29,2 10,7 13 7 OZO 1023,1 30
23.05.2020 16:00:00 28,6 9,9 13 7 ZO 1023,4 -
23.05.2020 15:00:00 29,0 10,1 16 9 ZZO 1023,9 30
23.05.2020 14:00:00 29,6 9,2 15 8 OZO 1024,2 30
23.05.2020 13:00:00 30,0 8,7 15 8 OZO 1024,7 -
23.05.2020 12:00:00 29,7 9,7 13 7 OZO 1024,8 -
23.05.2020 11:00:00 27,5 13,9 11 6 W 1024,6 30
23.05.2020 10:00:00 23,7 14,6 15 8 WNW 1024,8 -
23.05.2020 09:00:00 20,6 14,2 21 11 WNW 1024,2 -
23.05.2020 08:00:00 18,4 13,8 21 11 WNW 1024,0 30
23.05.2020 07:00:00 17,5 14,0 16 9 WNW 1023,7 -
23.05.2020 06:00:00 18,1 14,5 13 7 W 1023,7 -
23.05.2020 05:00:00 18,2 14,8 15 8 W 1023,7 20
23.05.2020 04:00:00 20,0 15,2 9 5 WNW 1023,8 -
23.05.2020 03:00:00 19,7 15,7 5 3 WNW 1023,7 -
23.05.2020 02:00:00 19,1 16,3 5 3 Z 1023,9 20
23.05.2020 01:00:00 19,3 16,4 4 2 ZZW 1023,8 -
23.05.2020 00:00:00 19,9 17,0 4 2 ZZO 1023,5 -
22.05.2020 23:00:00 21,0 18,0 5 3 OZO 1023,2 20
22.05.2020 22:00:00 21,6 18,5 4 2 ZO 1022,5 -
22.05.2020 21:00:00 23,5 18,6 11 6 OZO 1021,9 -
22.05.2020 20:00:00 24,7 18,3 11 6 OZO 1021,7 25
22.05.2020 19:00:00 25,2 19,0 15 8 OZO 1021,6 -
22.05.2020 18:00:00 25,9 18,6 15 8 OZO 1021,7 -
22.05.2020 17:00:00 26,5 16,1 15 8 OZO 1022,1 30
22.05.2020 16:00:00 26,6 16,7 18 10 OZO 1022,5 -
22.05.2020 15:00:00 26,8 13,9 15 8 OZO 1022,7 35
22.05.2020 14:00:00 26,9 14,0 16 9 OZO 1022,8 35
22.05.2020 13:00:00 27,0 12,6 15 8 OZO 1023,0 -
22.05.2020 12:00:00 27,1 12,0 13 7 OZO 1022,9 -
22.05.2020 11:00:00 26,5 14,0 5 3 ZO 1022,4 30
22.05.2020 10:00:00 23,7 16,4 8 4 WNW 1022,3 -
22.05.2020 09:00:00 20,7 15,7 9 5 WNW 1021,9 30
22.05.2020 08:00:00 18,6 14,8 11 6 WNW 1021,6 25
22.05.2020 07:00:00 18,1 14,5 9 5 W 1021,1 -
22.05.2020 06:00:00 18,6 15,0 8 4 WNW 1020,9 -
22.05.2020 05:00:00 18,6 14,8 13 7 WNW 1020,7 25
22.05.2020 04:00:00 19,6 15,0 11 6 WNW 1020,7 -
22.05.2020 03:00:00 19,3 14,6 13 7 W 1021,0 -
22.05.2020 02:00:00 20,1 15,5 11 6 WNW 1021,1 25
22.05.2020 01:00:00 18,8 16,9 0 0 N 1021,5 -
22.05.2020 00:00:00 19,8 17,5 4 2 ZO 1021,5 -
21.05.2020 23:00:00 20,7 17,4 2 1 ZZO 1021,1 25
21.05.2020 22:00:00 21,7 17,4 4 2 Z 1020,3 -
21.05.2020 21:00:00 23,4 17,3 5 3 ZO 1019,6 -
21.05.2020 20:00:00 24,6 16,8 9 5 OZO 1019,1 25
21.05.2020 19:00:00 25,2 17,0 11 6 OZO 1019,0 -
21.05.2020 18:00:00 25,5 17,4 13 7 OZO 1019,3 -
21.05.2020 17:00:00 25,6 18,8 16 9 OZO 1019,5 30
21.05.2020 16:00:00 24,8 19,4 18 10 OZO 1019,7 -
21.05.2020 15:00:00 25,0 19,4 16 9 OZO 1019,6 30
21.05.2020 14:00:00 24,5 19,3 18 10 OZO 1019,6 30
21.05.2020 13:00:00 24,1 19,1 22 12 O 1019,6 -
21.05.2020 12:00:00 23,5 17,4 16 9 OZO 1019,3 -
21.05.2020 11:00:00 23,6 17,6 11 6 OZO 1018,7 30

tt = temperatuur
td = dauwpunt
ff = windsnelheid
dd = windrichting
ppp = luchtdruk
vv = zicht

Weerstations in de omgeving